Regional Weather Roundup
Issued by NWS Boston, MA

Current Version | Previous Version | Text Only | Print | Product List | Glossary Off
Versions: 1 2 3 4 5 6 7 8 9 10 11 12 13 14 15 16 17 18 19 20 21 22 23 24 25 26 27 28 29 30 31 32 33 34 35 36 37 38 39 40 41 42 43 44 45 46 47 48 49 50
400 ASUS41 KBOX 211600 RWRBOX REGIONAL WEATHER ROUNDUP NATIONAL WEATHER SERVICE BOSTON/NORTON MA 1200 PM EDT TUE MAY 21 2019 NOTE: "FAIR" INDICATES FEW OR NO CLOUDS BELOW 12,000 FEET WITH NO SIGNIFICANT WEATHER AND/OR OBSTRUCTIONS TO VISIBILITY. MAZALL-211700- EASTERN MASSACHUSETTS CITY SKY/WX TMP DP RH WIND PRES REMARKS BOSTON FAIR 67 37 33 W14G26 29.76R BEVERLY FAIR 63 38 39 NW17G29 29.75R LAWRENCE FAIR 63 37 38 NW18G30 29.77S BEDFORD NOT AVBL BLUE HILL N/A 63 37 38 W23G37 29.75R NORWOOD FAIR 68 38 33 NW17G28 29.77R MARSHFIELD NOT AVBL PLYMOUTH FAIR 64 40 41 W17G26 29.77R TAUNTON FAIR 66 39 37 W10G22 29.78R NEW BEDFORD FAIR 64 43 46 NW16G24 29.78R $$ MAZALL-211700- CAPE COD AND THE ISLANDS CITY SKY/WX TMP DP RH WIND PRES REMARKS FALMOUTH FAIR 64 39 39 NW20G28 29.77R HYANNIS NOT AVBL CHATHAM FAIR 64 40 41 NW14G22 29.77R PROVINCETOWN FAIR 60 44 55 NW16 29.78R NANTUCKET FAIR 63 42 46 NW17 29.77R MARTHAS VNYRD FAIR 64 40 41 W16G29 29.78R $$ MAZALL-211700- CENTRAL AND WESTERN MASSACHUSETTS CITY SKY/WX TMP DP RH WIND PRES REMARKS WORCESTER FAIR 59 37 44 W25G36 29.80S FITCHBURG FAIR 64 35 34 NW25G33 29.80R ORANGE FAIR 63 36 36 W17G29 29.83R SPRINGFIELD NOT AVBL WESTFIELD FAIR 63 37 38 NW22G31 29.86S NORTH ADAMS CLOUDY 56 39 53 NW10G21 29.88R PITTSFIELD FAIR 56 37 49 NW28G37 29.89R $$ RIZALL-211700- RHODE ISLAND CITY SKY/WX TMP DP RH WIND PRES REMARKS PROVIDENCE FAIR 64 37 36 NW20G26 29.81R NEWPORT FAIR 62 42 47 W9G21 29.80R BLOCK ISLAND FAIR 61 43 51 NW14G22 29.84S SMITHFIELD FAIR 61 40 45 W15G26 29.81R WESTERLY FAIR 65 39 38 NW12G24 29.84R $$ CTZALL-211700- CONNECTICUT CITY SKY/WX TMP DP RH WIND PRES REMARKS BRADLEY INTL FAIR 65 38 36 NW28G35 29.86S HARTFORD FAIR 62 39 42 NW15G28 29.87S BRIDGEPORT FAIR 65 38 36 NW17G25 29.89S DANBURY FAIR 61 36 39 NW15G24 29.92R GROTON NOT AVBL NEW HAVEN FAIR 65 39 38 NW14G25 29.88S CHESTER FAIR 63 37 39 NW20G29 29.87R MERIDEN FAIR 62 37 39 NW22G35 29.89R WILLIMANTIC PTSUNNY 60 38 43 NW16G25 29.86R OXFORD FAIR 58 39 49 NW16G25 29.90R $$ MEZ002-015-021-024-NHZ003-005-008-011-012-014-VTZ005-008-211700- NORTHERN NEW ENGLAND CITY SKY/WX TMP DP RH WIND PRES REMARKS PORTLAND ME FAIR 62 36 37 NW22G33 29.70R BANGOR ME PTSUNNY 57 36 45 NW20G26 29.60S CONCORD NH PTSUNNY 59 34 39 NW17G35 29.77R MANCHESTER NH PTSUNNY 64 34 32 NW21G31 29.77R NASHUA NH FAIR 64 35 34 W22G32 29.78R PORTSMOUTH NH NOT AVBL JAFFREY NH FAIR 59 34 39 NW18G30 29.82R KEENE NH CLOUDY 58 36 43 N18 29.83F BURLINGTON VT CLOUDY 53 36 52 NW16 29.87R MT. WASHINGTON NOT AVBL $$ NYZ052-076-211700- EASTERN NEW YORK CITY SKY/WX TMP DP RH WIND PRES REMARKS ALBANY PTSUNNY 60 41 49 W16G32 29.93S NEW YORK CITY FAIR 63 36 36 NW17G30 29.94S $$ ANZALL-211700- MARINE OBSERVATIONS STATION/POSITION TIME TEMP WIND PRES VSBY WAVE AIR SEA DIR/SP/G HT/PER (UTC) (F) (DEG/KT/KT) (MB) (MI) (FT/S) BOSTON BUOY 1450 56 51 290/ 17/ 19 1006.5 2/ 4 BUZZARDS BAY NOT AVBL NANTUCKET SOUND 1540 55 280/ 14/ 17 1007.9R MASS BAY-STELLWA NOT AVBL ISLE OF SHOALS 1500 57 290/ 25/ 28 1005.2S S OF BLOCK IS 1530 52 N/A 5/ 5 $$ ......................KEY......................... SKY/WX - SKY CONDITION/PRESENT WEATHER TMP - TEMPERATURE IN FAHRENHEIT DWPT - DEWPOINT IN FAHRENHEIT RH - RELATIVE HUMIDITY IN PERCENT WIND - DIRECTION AND SPEED IN MPH PRES - MEAN SEA LEVEL PRESSURE IN INCHES OF HG WCI - WIND CHILL INDEX VSB - VISIBILITY IN MILES HX - HEAT INDEX TC - TEMPERATURE IN CELSIUS VRB - VARIABLE WIND DIRECTION N/A - NOT AVAILABLE

USA.gov is the U.S. government's official web portal to all federal, state and local government web resources and services.